Theta_e
305 305 305 305 306 307 307 309 310 308 308 307 307 307 306 305 303 305 306 312 312 310 306 305 304 306 307 309 308 308 311 314 315 314 317 311 311 312 310 315 319 322 321 327 331
301 301 302 303 303 304 305 306 307 308 309 308 307 307 306 303 304 307 309 310 311 310 307 305 306 306 307 309 310 310 311 312 312 312 313 311 310 313 313 314 316 323 326 327 328
299 299 299 300 300 301 302 303 305 306 307 308 308 307 306 303 306 310 310 311 310 310 307 305 304 307 307 308 309 310 310 310 309 309 308 309 309 309 312 314 316 318 323 328 328
298 298 298 299 298 299 299 300 302 303 304 306 308 308 306 304 303 309 306 308 310 308 308 306 306 307 308 307 309 308 309 308 308 308 308 309 309 310 310 314 310 314 321 327 329
299 298 299 298 299 299 299 299 299 300 301 304 305 307 306 305 305 302 301 306 309 307 306 307 306 307 308 307 307 308 308 307 307 307 308 307 309 310 309 310 308 315 321 326 329
300 299 299 299 299 299 298 298 298 298 299 300 303 305 306 307 304 302 302 302 303 307 306 305 306 306 307 307 308 307 308 308 308 308 307 308 309 308 310 310 310 307 315 323 327
300 300 300 299 299 299 298 298 298 298 299 299 299 303 306 306 305 305 304 303 302 303 306 307 304 305 306 307 307 307 307 308 308 308 308 308 309 308 309 309 309 309 308 314 324
299 300 300 300 300 299 299 298 298 298 297 298 299 300 305 304 305 304 303 303 303 302 303 306 306 305 305 306 306 307 307 308 308 308 308 308 309 310 310 310 309 310 310 309 311
296 298 299 299 299 299 299 298 297 297 298 301 299 302 303 302 302 302 302 303 302 303 303 306 305 306 306 306 307 308 309 308 308 306 308 309 309 310 309 307 309 309 310 310 308
297 297 297 298 298 298 299 297 295 297 294 303 302 301 302 302 302 303 306 304 304 304 308 309 308 308 307 307 310 310 307 306 307 306 305 307 308 309 305 305 307 308 308 307 307
297 297 297 297 297 298 298 295 295 295 293 293 294 294 294 296 298 302 304 305 305 308 310 311 310 311 311 308 307 309 309 309 309 304 305 306 307 308 308 308 307 307 308 307 307
296 296 296 297 297 298 295 295 295 293 294 292 293 294 294 294 295 296 299 302 305 307 306 310 313 310 309 308 307 306 307 308 306 303 304 305 306 307 307 307 307 307 308 308 308
296 296 296 296 297 295 295 295 294 294 292 291 292 293 294 296 297 298 297 299 303 304 307 307 308 309 308 306 306 307 307 308 307 304 304 304 306 308 308 307 307 307 308 309 309
296 296 296 296 296 294 295 294 293 292 292 290 293 298 298 300 298 294 300 299 301 304 304 307 306 309 311 308 307 309 307 306 305 306 309 305 310 311 310 310 309 308 308 308 309
295 295 296 296 296 295 295 293 292 293 290 290 296 299 296 298 295 294 294 294 303 301 305 305 306 307 310 311 308 308 307 305 306 307 308 308 307 310 311 310 312 312 310 310 311
295 295 296 295 295 295 294 293 292 292 290 290 292 293 292 293 292 293 295 297 301 302 302 306 305 307 308 310 309 306 305 305 305 307 311 310 309 311 312 311 311 313 313 314 313
295 295 295 295 295 294 293 293 293 292 290 291 292 292 291 291 292 294 294 293 293 306 305 303 306 307 308 309 308 307 307 313 313 312 315 310 310 311 313 312 312 313 314 312 311
294 294 293 293 294 294 293 293 293 291 290 291 291 292 291 291 292 292 293 295 295 297 307 307 307 308 306 310 309 308 310 314 312 314 310 306 313 313 311 311 312 312 312 310 306
293 292 292 293 294 294 293 294 292 292 291 291 292 291 291 291 291 292 294 293 296 295 306 308 306 307 307 308 308 308 311 310 311 303 313 313 312 311 311 310 309 308 308 309 310
293 292 292 292 293 293 293 293 293 290 291 292 293 291 291 291 291 292 292 292 294 294 294 297 310 305 307 307 308 307 309 312 315 317 317 315 314 315 313 312 311 310 308 308 308
292 292 291 291 292 293 293 293 290 292 292 292 291 291 291 292 291 292 292 293 294 295 298 299 306 307 308 308 310 310 310 310 312 312 316 314 312 312 314 311 308 308 306 308 309
291 292 291 292 293 288 293 289 290 292 291 291 292 292 291 291 292 293 293 294 295 297 301 298 307 308 308 308 308 309 308 310 315 316 312 311 311 305 307 307 306 306 302 303 305
293 292 291 291 293 291 288 288 289 291 291 291 291 291 292 291 292 293 294 295 295 298 299 302 308 308 309 308 306 310 309 310 311 312 315 315 310 305 305 306 305 305 304 305 304
293 293 290 291 289 290 288 290 289 289 290 291 291 291 292 292 293 294 294 295 298 299 299 300 303 308 306 307 308 309 310 310 311 315 313 313 311 308 307 306 307 306 306 307 306
292 292 290 292 291 291 292 291 291 290 290 291 291 291 292 292 292 294 295 294 297 298 299 300 300 300 302 307 306 308 309 310 311 312 314 311 311 308 307 306 305 306 307 308 307
292 292 288 291 288 289 291 291 291 291 291 290 291 291 292 292 294 295 295 296 297 297 298 299 301 300 301 302 302 308 308 310 309 310 311 308 310 305 305 304 306 306 308 308 308
290 290 291 291 290 290 291 290 290 290 290 291 291 292 292 292 293 294 294 295 296 296 296 298 299 300 300 299 302 305 305 307 309 308 309 309 308 306 306 306 306 305 306 307 308
Wind_Speed
20 21 21 22 23 23 24 25 19 18 19 20 22 23 26 30 33 16 9 7 6 8 6 6 3 1 2 3 2 2 7 14 17 12 9 5 7 5 1 5 4 5 1 3 15
19 19 20 21 21 23 23 24 24 25 20 20 21 22 25 33 24 10 8 14 10 6 5 4 3 3 3 3 4 7 11 17 7 10 7 4 6 5 5 9 7 6 5 7 16
20 20 19 20 21 21 23 23 24 25 24 24 20 21 23 28 8 2 10 11 9 7 7 3 3 3 5 4 7 6 16 12 8 10 6 4 4 3 7 9 12 14 12 12 16
21 21 21 21 21 22 22 23 23 24 25 25 25 19 20 15 6 1 12 15 10 7 5 4 5 5 6 10 7 10 11 11 3 4 5 6 2 4 11 7 2 6 8 14 16
21 21 21 21 21 22 23 22 22 24 25 25 24 23 10 8 10 11 18 13 12 9 6 6 9 8 9 5 7 11 13 8 12 6 7 2 10 8 9 12 2 2 7 13 15
20 21 21 22 22 23 24 25 25 24 25 25 24 23 9 9 10 12 16 23 19 12 6 6 5 7 7 7 12 2 10 15 8 8 8 8 12 6 10 10 14 10 10 11 15
21 21 21 21 22 23 25 27 27 29 29 25 24 21 16 19 19 30 28 23 18 12 9 10 9 7 3 8 8 5 9 10 12 12 7 7 16 20 19 13 12 12 16 13 15
23 22 21 21 22 23 24 27 29 33 33 28 23 18 12 9 17 19 22 24 22 23 18 19 15 10 10 4 3 6 6 12 6 12 7 12 24 16 14 18 22 22 18 15 19
22 21 23 22 22 23 25 28 31 28 24 18 7 9 10 7 6 12 12 13 13 11 16 15 6 9 5 14 10 10 12 13 12 12 7 17 17 15 14 13 16 16 19 18 17
22 21 21 22 24 24 25 27 19 9 23 5 0 6 4 9 11 12 11 8 6 6 9 9 8 11 14 16 17 13 9 12 11 7 11 13 21 16 6 8 13 15 16 14 15
22 22 21 22 25 24 22 16 8 3 25 7 18 17 25 33 26 10 12 17 6 6 14 14 13 22 28 25 18 18 20 17 11 7 10 17 22 22 18 20 18 18 16 16 17
24 21 22 23 21 19 11 5 4 7 11 19 23 25 31 26 24 28 27 10 10 12 15 15 28 22 17 22 22 21 20 21 10 5 9 10 18 18 19 18 20 21 21 20 18
23 22 22 22 19 8 7 4 8 12 7 6 8 9 7 10 9 17 25 23 24 24 20 26 16 23 17 18 23 26 27 21 14 3 6 8 17 21 18 20 21 20 21 20 20
22 22 21 21 5 3 2 1 13 10 5 6 3 3 3 6 5 27 20 23 27 28 24 22 27 27 24 29 25 26 20 18 13 8 11 3 12 20 10 17 20 20 19 20 21
19 21 20 15 5 1 4 4 11 2 7 2 2 2 2 4 9 22 11 11 33 30 11 20 12 27 28 28 22 19 10 14 18 16 15 17 8 14 10 20 24 18 18 20 21
20 19 18 11 5 6 4 4 2 1 7 6 7 8 15 22 20 15 12 10 12 28 32 31 9 15 31 21 21 9 9 6 4 8 9 24 17 18 20 18 19 17 19 19 18
19 18 16 9 3 5 5 3 2 5 2 6 6 11 19 24 24 14 15 19 10 10 22 28 30 19 10 22 19 21 19 6 6 6 16 5 15 24 12 9 14 14 14 13 11
19 17 17 13 9 10 4 2 6 3 8 11 12 17 20 17 10 19 19 20 25 22 14 18 20 32 16 25 21 27 23 8 11 9 12 6 13 8 15 17 16 21 16 8 7
18 15 10 4 10 14 2 5 5 6 5 6 15 14 16 8 16 22 14 21 10 22 14 11 19 12 27 20 22 22 21 25 4 2 3 10 14 12 13 14 12 16 13 15 15
12 8 6 3 7 8 2 8 5 4 4 8 7 5 16 20 14 15 13 12 11 15 16 12 9 23 24 19 18 19 24 15 8 9 8 10 12 12 6 14 13 13 12 13 14
5 4 2 2 11 2 4 5 5 10 8 6 12 17 19 18 15 13 9 22 22 23 21 18 13 7 17 17 22 16 17 20 18 10 10 7 7 5 15 5 3 4 6 10 12
1 3 3 16 3 0 3 4 4 11 7 7 5 11 13 15 17 15 23 18 14 21 19 21 6 11 13 22 25 23 23 24 13 18 11 4 4 3 6 7 6 4 2 3 6
2 2 5 4 5 5 3 5 4 11 12 4 8 8 10 13 10 11 20 15 19 11 8 12 6 11 6 10 10 20 22 25 25 15 13 10 5 3 6 3 3 2 1 5 7
2 3 2 3 2 4 3 7 4 4 8 8 13 13 13 10 12 13 24 13 4 5 10 10 7 7 14 8 11 22 23 22 24 13 20 17 5 2 5 5 3 3 3 6 7
3 4 2 3 6 9 8 6 14 11 8 10 8 11 13 9 18 15 19 20 11 5 5 3 5 6 12 6 7 18 22 25 20 26 16 14 9 3 4 2 1 1 4 8 6
3 3 2 4 3 7 13 15 18 21 11 15 14 19 14 14 14 18 20 10 6 6 5 4 2 5 7 3 4 4 15 18 19 19 18 1 7 1 2 1 4 4 6 9 8
9 7 5 10 6 6 13 17 19 14 14 21 20 18 17 17 14 10 10 15 12 10 12 6 5 5 3 8 1 3 3 12 17 16 16 11 9 1 3 5 7 6 6 7 8
Wind_Direction
11 10 5 1 359 359 356 2 345 334 337 339 341 344 344 339 330 325 285 288 279 291 296 288 265 273 256 208 214 271 234 241 238 220 230 175 225 180 334 197 181 192 275 67 149
7 2 359 2 356 354 346 347 349 356 331 327 331 337 339 340 328 301 339 342 275 276 284 273 241 171 227 218 190 227 237 241 248 239 247 216 237 210 199 199 200 201 165 130 154
14 10 5 357 354 350 348 343 339 344 341 341 321 330 337 342 310 109 6 354 333 274 256 263 249 199 221 213 200 199 241 244 243 230 243 234 230 234 233 219 215 205 187 163 168
7 6 5 1 357 354 348 342 340 335 329 334 339 322 333 344 303 126 351 348 346 312 256 232 205 203 219 214 208 239 243 238 255 218 197 235 241 234 234 234 345 194 163 169 181
357 356 356 354 351 348 345 343 336 329 325 323 327 333 320 305 264 289 318 337 350 329 267 242 218 217 225 219 210 237 245 241 243 254 241 232 239 241 241 246 210 125 173 188 192
348 346 343 345 344 341 341 337 331 325 320 314 311 319 297 256 266 300 310 314 320 327 285 233 251 249 269 240 222 296 254 250 240 235 236 235 246 211 233 253 240 228 219 203 206
343 340 336 335 335 335 335 332 325 321 314 309 308 306 275 257 271 289 291 292 286 275 286 268 264 244 256 246 239 263 262 252 237 229 238 224 253 237 242 231 245 232 234 224 214
341 341 335 330 331 331 329 327 321 316 311 303 298 291 270 281 276 284 286 278 268 267 256 269 269 253 237 287 211 227 233 247 226 197 220 197 256 247 233 226 239 243 239 227 225
330 335 338 333 327 328 324 322 319 314 316 309 286 244 272 316 289 295 293 266 284 267 241 253 235 222 198 227 241 213 242 231 260 200 202 203 260 254 236 219 232 239 240 239 237
342 337 333 331 330 327 326 325 322 341 6 38 121 314 259 342 342 317 310 289 291 275 217 221 217 220 212 203 217 218 225 222 230 190 219 216 245 250 209 221 236 245 242 236 237
342 342 337 331 334 331 336 343 3 355 346 270 292 270 273 276 281 277 357 327 299 259 213 200 218 217 214 214 227 250 238 235 226 214 209 234 250 255 249 253 245 249 244 239 238
341 340 336 334 337 334 355 37 60 295 297 282 261 268 273 286 283 276 278 284 274 267 241 227 232 230 233 223 224 228 235 239 262 183 210 253 262 258 256 250 248 240 242 240 240
339 333 334 333 330 352 67 94 353 334 289 305 247 261 313 312 286 315 284 252 245 257 245 234 235 222 226 213 216 222 226 228 240 155 228 281 270 262 250 243 247 239 244 245 239
336 335 334 336 355 46 16 13 341 333 297 298 227 198 18 4 240 318 321 255 249 247 240 253 242 247 221 223 213 227 224 241 242 249 251 206 279 266 240 246 238 238 232 237 235
333 334 331 334 292 260 283 337 332 354 306 315 257 153 348 89 279 309 280 294 250 239 220 224 218 216 232 228 217 235 203 209 227 245 274 245 265 265 238 241 245 233 231 231 232
330 328 327 325 326 270 176 334 358 183 252 301 304 337 344 322 315 308 339 350 276 237 239 247 239 231 232 223 222 172 150 146 195 225 247 236 224 262 243 232 248 245 239 236 234
330 326 320 301 276 181 185 71 197 211 347 269 321 337 324 319 319 345 327 310 304 254 223 233 237 242 232 207 200 193 179 169 186 190 239 183 217 241 255 236 246 259 250 238 233
330 322 312 276 255 205 119 166 237 209 256 312 320 315 309 321 310 326 310 307 308 298 263 213 225 224 202 210 203 202 184 184 192 202 231 132 233 248 234 248 254 243 251 232 203
333 326 311 298 227 191 166 230 252 233 261 297 319 313 306 314 319 316 336 294 298 324 232 243 226 212 205 204 207 201 209 210 114 60 219 216 244 276 260 261 231 240 230 232 233
331 315 290 285 192 160 198 250 245 221 287 292 287 269 295 310 317 323 316 295 290 301 295 291 279 208 196 208 216 191 203 195 215 206 222 225 243 242 226 245 245 244 223 235 232
334 316 249 197 151 193 235 243 271 263 242 240 285 287 290 299 294 298 277 293 281 291 312 277 235 260 184 196 196 196 196 208 215 228 222 250 238 213 233 255 274 271 297 242 220
20 267 181 146 197 235 235 213 251 281 258 273 268 273 277 293 288 285 277 260 281 304 294 279 274 239 241 213 204 204 203 204 205 205 229 301 250 346 308 297 268 291 335 54 144
239 242 189 179 240 221 238 259 252 278 278 258 272 267 279 286 289 268 282 284 278 280 315 336 213 231 187 222 213 210 211 207 221 227 216 212 199 350 354 357 40 105 94 114 118
254 258 225 229 204 243 236 258 256 245 265 251 265 287 280 269 268 288 297 298 266 256 293 310 296 253 231 248 184 201 207 215 216 214 225 218 223 105 348 346 34 82 125 108 112
204 224 217 211 241 218 227 249 276 271 244 275 282 252 269 289 303 297 315 308 274 276 269 237 290 329 281 271 288 211 197 211 220 225 222 219 212 236 359 339 41 91 146 123 108
274 270 180 262 240 237 247 253 258 267 244 282 246 277 278 278 282 311 325 328 351 311 283 303 292 291 8 317 35 295 223 209 216 224 240 115 224 30 94 63 88 109 149 123 124
248 249 241 256 240 224 239 244 256 260 265 250 261 277 281 283 286 270 277 277 288 304 314 314 319 341 344 330 208 269 316 227 219 220 225 217 226 210 143 144 120 126 106 109 123